FW8568 Weather Reports


Display with metric or nautical units.
time (UTC)temp
F
wind
direction
speed
MPH
gust
MPH
rain 1hr
in
rain 24hr
in
rain mn
in
humidity
%
barometer
mb
20260508003939 97 93 2.0 6.0 0.00 0.00 0.00 13 1007.8
20260508003436 98 122 1.0 4.0 0.00 0.00 0.00 12 1008.0
20260508002933 100 95 3.0 5.0 0.00 0.00 0.00 12 1007.9
20260508002430 99 90 3.0 4.0 0.00 0.00 0.00 12 1007.9
20260508001926 99 90 3.0 5.0 0.00 0.00 0.00 12 1008.1
20260508001423 100 90 4.0 5.0 0.00 0.00 0.00 12 1007.8
20260508000919 100 97 3.0 5.0 0.00 0.00 0.00 12 1007.9
20260508000415 99 85 3.0 3.0 0.00 0.00 0.00 12 1008.1
20260507235912 98 78 3.0 3.0 0.00 0.00 0.00 12 1008.1
20260507235409 98 91 1.0 6.0 0.00 0.00 0.00 12 1008.0
20260507234906 98 99 3.0 7.0 0.00 0.00 0.00 12 1008.2
20260507234403 99 80 3.0 5.0 0.00 0.00 0.00 12 1008.0
20260507233900 102 89 1.0 2.0 0.00 0.00 0.00 13 1007.8
20260507233357 100 59 2.0 3.0 0.00 0.00 0.00 12 1008.1
20260507232855 98 80 2.0 4.0 0.00 0.00 0.00 12 1008.0
20260507232351 99 92 3.0 5.0 0.00 0.00 0.00 11 1008.1
20260507231849 98 91 1.0 6.0 0.00 0.00 0.00 12 1008.1
20260507231345 97 90 4.0 8.0 0.00 0.00 0.00 12 1008.0
20260507230841 97 121 2.0 4.0 0.00 0.00 0.00 12 1008.2
20260507230339 97 83 3.0 3.0 0.00 0.00 0.00 12 1008.0
20260507225838 97 94 0.0 5.0 0.00 0.00 0.00 13 1008.2
20260507225335 98 117 4.0 5.0 0.00 0.00 0.00 11 1008.3
20260507224831 98 34 3.0 7.0 0.00 0.00 0.00 12 1008.0
20260507224328 98 28 2.0 5.0 0.00 0.00 0.00 12 1008.3
20260507223824 98 134 3.0 6.0 0.00 0.00 0.00 11 1008.2
20260507223320 98 59 1.0 3.0 0.00 0.00 0.00 12 1008.3
20260507222818 98 90 2.0 4.0 0.00 0.00 0.00 12 1008.5
20260507222314 99 103 2.0 4.0 0.00 0.00 0.00 11 1008.3
20260507221811 98 87 3.0 3.0 0.00 0.00 0.00 12 1008.5
20260507221307 97 161 1.0 5.0 0.00 0.00 0.00 12 1008.8
20260507220803 96 273 1.0 5.0 0.00 0.00 0.00 12 1008.9
20260507220302 97 38 1.0 5.0 0.00 0.00 0.00 12 1008.6
20260507215758 97 84 2.0 5.0 0.00 0.00 0.00 12 1008.6
20260507215255 97 100 2.0 3.0 0.00 0.00 0.00 13 1008.6
20260507214752 96 83 1.0 2.0 0.00 0.00 0.00 13 1009.1
20260507214250 96 91 2.0 5.0 0.00 0.00 0.00 11 1009.0
20260507213744 96 94 5.0 6.0 0.00 0.00 0.00 12 1009.0
20260507213242 95 108 3.0 3.0 0.00 0.00 0.00 12 1009.1
20260507212738 96 107 7.0 7.0 0.00 0.00 0.00 12 1009.1
20260507212235 94 106 5.0 5.0 0.00 0.00 0.00 12 1009.4
20260507211732 95 259 1.0 3.0 0.00 0.00 0.00 13 1009.2
20260507211228 95 128 2.0 2.0 0.00 0.00 0.00 12 1009.4
20260507210725 95 62 2.0 3.0 0.00 0.00 0.00 14 1009.5
20260507210222 95 156 0.0 3.0 0.00 0.00 0.00 12 1009.7
20260507205718 96 66 2.0 3.0 0.00 0.00 0.00 12 1009.8
20260507205215 95 87 2.0 3.0 0.00 0.00 0.00 12 1009.8
20260507204711 94 92 0.0 5.0 0.00 0.00 0.00 11 1010.0
20260507204209 95 352 1.0 3.0 0.00 0.00 0.00 12 1010.0
20260507203707 95 76 2.0 4.0 0.00 0.00 0.00 12 1010.0
20260507203204 95 114 1.0 3.0 0.00 0.00 0.00 12 1010.1
20260507202700 93 85 1.0 3.0 0.00 0.00 0.00 13 1010.1
20260507202156 92 168 0.0 2.0 0.00 0.00 0.00 13 1010.2
20260507201651 93 108 1.0 2.0 0.00 0.00 0.00 13 1010.4
20260507201148 93 58 1.0 2.0 0.00 0.00 0.00 14 1010.6
20260507200644 92 126 0.0 3.0 0.00 0.00 0.00 14 1010.6
20260507200140 92 75 2.0 6.0 0.00 0.00 0.00 13 1010.7
20260507195637 92 220 1.0 2.0 0.00 0.00 0.00 14 1010.9
20260507195134 93 93 6.0 6.0 0.00 0.00 0.00 13 1010.9
20260507194631 92 87 2.0 4.0 0.00 0.00 0.00 13 1010.7
20260507194126 91 93 3.0 5.0 0.00 0.00 0.00 13 1011.0
20260507193624 91 337 2.0 4.0 0.00 0.00 0.00 14 1011.2
20260507193121 91 106 3.0 5.0 0.00 0.00 0.00 13 1011.3
20260507192617 91 203 1.0 4.0 0.00 0.00 0.00 14 1011.3
20260507192114 92 38 1.0 2.0 0.00 0.00 0.00 15 1011.5
20260507191610 93 143 0.0 2.0 0.00 0.00 0.00 15 1011.4
20260507191107 92 250 0.0 1.0 0.00 0.00 0.00 14 1011.5
20260507190604 91 202 0.0 3.0 0.00 0.00 0.00 14 1011.7
20260507185601 91 89 2.0 2.0 0.00 0.00 0.00 14 1011.8
20260507185057 91 83 2.0 3.0 0.00 0.00 0.00 13 1012.1
20260507184555 91 276 3.0 3.0 0.00 0.00 0.00 15 1011.8
20260507184053 90 111 2.0 3.0 0.00 0.00 0.00 15 1011.9
20260507183548 89 83 3.0 3.0 0.00 0.00 0.00 14 1011.9
20260507183046 89 97 2.0 5.0 0.00 0.00 0.00 14 1012.1
20260507182542 90 120 2.0 3.0 0.00 0.00 0.00 16 1012.2
20260507182038 89 237 0.0 3.0 0.00 0.00 0.00 14 1012.2
20260507181535 89 199 0.0 3.0 0.00 0.00 0.00 14 1012.4
20260507181031 89 291 0.0 3.0 0.00 0.00 0.00 15 1012.2
20260507180527 91 225 0.0 3.0 0.00 0.00 0.00 13 1012.3
20260507180025 90 31 0.0 2.0 0.00 0.00 0.00 16 1012.5
20260507175521 90 67 0.0 2.0 0.00 0.00 0.00 15 1012.4
20260507175019 90 299 0.0 3.0 0.00 0.00 0.00 14 1012.5
20260507174515 89 208 2.0 3.0 0.00 0.00 0.00 14 1012.6
20260507174013 90 136 0.0 2.0 0.00 0.00 0.00 16 1012.6
20260507173510 90 71 0.0 4.0 0.00 0.00 0.00 15 1012.4
20260507173008 90 343 0.0 2.0 0.00 0.00 0.00 16 1012.8
20260507172503 90 81 0.0 2.0 0.00 0.00 0.00 15 1012.8
20260507172000 90 47 1.0 3.0 0.00 0.00 0.00 15 1013.0
20260507171455 89 91 0.0 1.0 0.00 0.00 0.00 16 1013.0
20260507170953 87 231 0.0 3.0 0.00 0.00 0.00 17 1012.9
20260507170450 89 97 2.0 2.0 0.00 0.00 0.00 17 1013.1
20260507165946 88 114 1.0 2.0 0.00 0.00 0.00 17 1013.1
20260507165442 89 352 0.0 2.0 0.00 0.00 0.00 17 1012.9
20260507164938 90 211 2.0 2.0 0.00 0.00 0.00 17 1013.1
20260507164435 88 92 0.0 2.0 0.00 0.00 0.00 17 1013.3
20260507163932 89 150 0.0 1.0 0.00 0.00 0.00 19 1013.2
20260507163429 88 75 1.0 2.0 0.00 0.00 0.00 22 1013.1
20260507162926 86 114 1.0 3.0 0.00 0.00 0.00 20 1013.2
20260507162421 87 150 0.0 3.0 0.00 0.00 0.00 21 1013.3
20260507161919 88 43 1.0 2.0 0.00 0.00 0.00 22 1013.4
20260507161415 88 349 0.0 2.0 0.00 0.00 0.00 20 1013.3
20260507160912 87 115 1.0 1.0 0.00 0.00 0.00 22 1013.4
20260507160408 86 104 0.0 3.0 0.00 0.00 0.00 21 1013.6
20260507155904 87 71 0.0 2.0 0.00 0.00 0.00 22 1013.5
20260507155400 87 77 0.0 0.0 0.00 0.00 0.00 22 1013.7
20260507154857 84 126 0.0 2.0 0.00 0.00 0.00 24 1013.8
20260507154354 83 63 0.0 2.0 0.00 0.00 0.00 23 1013.3
20260507153851 84 36 0.0 1.0 0.00 0.00 0.00 24 1013.4
20260507153347 84 270 0.0 2.0 0.00 0.00 0.00 25 1013.7
20260507152844 83 50 0.0 2.0 0.00 0.00 0.00 26 1013.8
20260507152340 83 264 0.0 1.0 0.00 0.00 0.00 25 1013.7
20260507151837 83 287 1.0 3.0 0.00 0.00 0.00 24 1013.7
20260507151333 83 178 0.0 1.0 0.00 0.00 0.00 25 1013.8
20260507150830 83 169 1.0 1.0 0.00 0.00 0.00 25 1013.6
20260507150326 82 324 0.0 0.0 0.00 0.00 0.00 27 1013.7
20260507145823 81 190 0.0 0.0 0.00 0.00 0.00 27 1013.6
20260507145319 78 299 0.0 2.0 0.00 0.00 0.00 27 1013.5
20260507144816 75 124 0.0 2.0 0.00 0.00 0.00 29 1013.6
20260507144314 76 171 0.0 0.0 0.00 0.00 0.00 28 1013.8
20260507143810 76 119 0.0 1.0 0.00 0.00 0.00 29 1013.5
20260507143308 76 84 0.0 1.0 0.00 0.00 0.00 29 1013.6
20260507142803 77 44 0.0 0.0 0.00 0.00 0.00 30 1013.6
20260507142300 78 270 0.0 0.0 0.00 0.00 0.00 29 1013.6
20260507141756 78 257 0.0 0.0 0.00 0.00 0.00 29 1013.5
20260507141254 77 305 0.0 0.0 0.00 0.00 0.00 29 1013.5
20260507140749 76 299 0.0 0.0 0.00 0.00 0.00 32 1013.5
20260507140247 77 261 0.0 0.0 0.00 0.00 0.00 30 1013.3
20260507135744 78 268 0.0 1.0 0.00 0.00 0.00 29 1013.4
20260507135242 74 284 0.0 0.0 0.00 0.00 0.00 33 1013.5
20260507134737 72 257 0.0 1.0 0.00 0.00 0.00 34 1013.4
20260507134234 68 284 0.0 2.0 0.00 0.00 0.00 38 1013.4
20260507133730 64 319 1.0 2.0 0.00 0.00 0.00 42 1013.3
20260507133227 63 279 1.0 3.0 0.00 0.00 0.00 42 1013.5
20260507132724 62 305 0.0 2.0 0.00 0.00 0.00 41 1013.3
20260507132221 62 350 0.0 1.0 0.00 0.00 0.00 41 1013.4
20260507131718 62 321 2.0 2.0 0.00 0.00 0.00 41 1013.3
20260507131215 61 314 1.0 2.0 0.00 0.00 0.00 41 1013.2
20260507130712 61 310 0.0 2.0 0.00 0.00 0.00 42 1013.3
20260507130210 61 296 2.0 3.0 0.00 0.00 0.00 40 1013.2
20260507125708 61 308 1.0 2.0 0.00 0.00 0.00 41 1013.0
20260507125205 61 284 0.0 1.0 0.00 0.00 0.00 41 1013.0
20260507124701 61 264 0.0 2.0 0.00 0.00 0.00 40 1012.8
20260507124159 60 303 2.0 2.0 0.00 0.00 0.00 41 1013.3
20260507123657 61 278 2.0 2.0 0.00 0.00 0.00 40 1013.1
20260507123154 61 281 1.0 2.0 0.00 0.00 0.00 41 1013.1
20260507122649 61 289 1.0 2.0 0.00 0.00 0.00 40 1012.9
20260507122145 61 272 2.0 2.0 0.00 0.00 0.00 39 1013.1
20260507121641 61 283 1.0 2.0 0.00 0.00 0.00 40 1013.0
20260507121137 61 287 1.0 2.0 0.00 0.00 0.00 39 1013.0
20260507120634 61 322 0.0 2.0 0.00 0.00 0.00 39 1012.8
20260507120131 61 243 1.0 2.0 0.00 0.00 0.00 39 1013.0
20260507115627 62 288 0.0 3.0 0.00 0.00 0.00 38 1012.9
20260507115122 62 290 1.0 2.0 0.00 0.00 0.00 38 1012.7
20260507114619 62 329 0.0 2.0 0.00 0.00 0.00 38 1013.0
20260507114116 62 324 0.0 2.0 0.00 0.00 0.00 38 1013.0
20260507113613 62 287 2.0 2.0 0.00 0.00 0.00 37 1013.0
20260507113110 63 264 0.0 1.0 0.00 0.00 0.00 37 1013.2
20260507112608 63 270 0.0 1.0 0.00 0.00 0.00 37 1013.1
20260507112105 63 284 0.0 0.0 0.00 0.00 0.00 36 1012.9
20260507111602 63 317 0.0 2.0 0.00 0.00 0.00 38 1012.8
20260507111058 63 276 0.0 0.0 0.00 0.00 0.00 39 1013.1
20260507110554 62 284 0.0 1.0 0.00 0.00 0.00 40 1012.9
20260507110051 63 289 1.0 2.0 0.00 0.00 0.00 39 1012.9
20260507105548 63 295 0.0 1.0 0.00 0.00 0.00 39 1013.1
20260507105044 63 284 0.0 1.0 0.00 0.00 0.00 38 1013.0
20260507104542 63 295 0.0 1.0 0.00 0.00 0.00 39 1013.3
20260507104038 64 314 1.0 1.0 0.00 0.00 0.00 38 1012.9
20260507103534 64 290 0.0 1.0 0.00 0.00 0.00 38 1013.1
20260507103031 64 315 0.0 1.0 0.00 0.00 0.00 38 1013.4
20260507102528 64 287 1.0 2.0 0.00 0.00 0.00 37 1013.4
20260507102024 64 288 1.0 1.0 0.00 0.00 0.00 37 1013.3
20260507101519 64 268 0.0 1.0 0.00 0.00 0.00 37 1013.5
20260507101016 65 284 0.0 1.0 0.00 0.00 0.00 37 1013.4
20260507100513 64 294 1.0 1.0 0.00 0.00 0.00 36 1013.5
20260507100011 64 272 0.0 1.0 0.00 0.00 0.00 38 1013.6
20260507095509 64 298 0.0 2.0 0.00 0.00 0.00 39 1013.4
20260507095005 64 274 1.0 2.0 0.00 0.00 0.00 39 1013.5
20260507094501 65 296 0.0 1.0 0.00 0.00 0.00 38 1013.5
20260507093959 65 287 1.0 2.0 0.00 0.00 0.00 37 1013.5
20260507093456 65 284 1.0 2.0 0.00 0.00 0.00 36 1013.3
20260507092954 65 284 0.0 2.0 0.00 0.00 0.00 35 1013.2
20260507092450 65 284 1.0 2.0 0.00 0.00 0.00 35 1013.4
20260507091947 65 273 1.0 2.0 0.00 0.00 0.00 34 1013.4
20260507091444 65 284 0.0 1.0 0.00 0.00 0.00 35 1013.5
20260507090940 65 282 1.0 2.0 0.00 0.00 0.00 35 1013.3
20260507090436 65 284 0.0 2.0 0.00 0.00 0.00 35 1013.2
20260507085932 65 284 1.0 1.0 0.00 0.00 0.00 35 1013.2
20260507085430 65 294 1.0 1.0 0.00 0.00 0.00 34 1013.3
20260507084927 65 284 1.0 1.0 0.00 0.00 0.00 35 1013.5
20260507084424 65 289 1.0 1.0 0.00 0.00 0.00 35 1013.5
20260507083921 66 298 0.0 1.0 0.00 0.00 0.00 34 1013.5
20260507083417 66 280 0.0 1.0 0.00 0.00 0.00 34 1013.6
20260507082913 66 261 0.0 1.0 0.00 0.00 0.00 35 1013.8
20260507082409 66 302 0.0 1.0 0.00 0.00 0.00 34 1013.5
20260507081907 66 293 0.0 2.0 0.00 0.00 0.00 34 1013.5
20260507081403 66 288 1.0 1.0 0.00 0.00 0.00 33 1013.6
20260507080859 66 287 0.0 2.0 0.00 0.00 0.00 34 1013.4
20260507080356 66 284 0.0 1.0 0.00 0.00 0.00 34 1013.7
20260507075851 67 314 1.0 2.0 0.00 0.00 0.00 33 1013.7
20260507075347 67 308 0.0 1.0 0.00 0.00 0.00 34 1013.6
20260507074844 67 312 1.0 1.0 0.00 0.00 0.00 33 1013.7
20260507074341 67 272 0.0 1.0 0.00 0.00 0.00 33 1013.8
20260507073838 68 292 0.0 1.0 0.00 0.00 0.00 33 1013.6
20260507073335 68 298 0.0 1.0 0.00 0.00 0.00 32 1013.7
20260507072832 68 324 0.0 1.0 0.00 0.00 0.00 31 1013.7
20260507072330 68 275 0.0 1.0 0.00 0.00 0.00 31 1013.8
20260507071827 68 245 0.0 1.0 0.00 0.00 0.00 31 1013.7
20260507071324 68 287 0.0 1.0 0.00 0.00 0.00 32 1013.7
20260507070820 68 284 0.0 1.0 0.00 0.00 0.00 33 1013.5
20260507070318 68 319 0.0 1.0 0.00 0.00 0.00 33 1013.6
20260507065814 68 300 0.0 1.0 0.00 0.00 0.00 33 1013.6
20260507065311 69 277 0.0 1.0 0.00 0.00 0.00 33 1013.7
20260507064808 69 288 0.0 1.0 0.00 0.00 0.00 32 1013.4
20260507064307 69 274 0.0 1.0 0.00 0.00 0.00 32 1013.7
20260507063804 69 308 0.0 1.0 0.00 0.00 0.00 32 1013.7
20260507063301 69 271 0.0 1.0 0.00 0.00 0.00 32 1013.6
20260507062758 69 284 0.0 1.0 0.00 0.00 0.00 31 1013.7
20260507062255 69 271 0.0 1.0 0.00 0.00 0.00 32 1013.5
20260507061753 70 305 0.0 1.0 0.00 0.00 0.00 31 1013.6
20260507061250 70 306 1.0 1.0 0.00 0.00 0.00 31 1013.7
20260507060748 70 257 0.0 1.0 0.00 0.00 0.00 31 1013.5
20260507060244 70 257 0.0 1.0 0.00 0.00 0.00 36 1013.8
20260507055741 69 308 0.0 1.0 0.00 0.00 0.00 33 1013.7
20260507055236 70 323 1.0 1.0 0.00 0.00 0.00 33 1013.5
20260507054733 70 311 1.0 1.0 0.00 0.00 0.00 33 1013.9
20260507054230 70 284 0.0 1.0 0.00 0.00 0.00 33 1013.5
20260507053727 70 307 0.0 0.0 0.00 0.00 0.00 32 1013.6
20260507053225 71 321 0.0 0.0 0.00 0.00 0.00 33 1013.5
20260507052724 71 284 0.0 1.0 0.00 0.00 0.00 32 1013.5
20260507052219 71 284 0.0 1.0 0.00 0.00 0.00 31 1013.6
20260507051718 71 284 0.0 1.0 0.00 0.00 0.00 31 1013.6
20260507051214 71 284 0.0 0.0 0.00 0.00 0.00 31 1013.5
20260507050711 71 330 0.0 0.0 0.00 0.00 0.00 30 1013.4
20260507050208 72 304 0.0 0.0 0.00 0.00 0.00 31 1013.3
20260507045705 72 319 0.0 0.0 0.00 0.00 0.00 30 1013.3
20260507045201 72 284 0.0 0.0 0.00 0.00 0.00 30 1013.3
20260507044658 72 284 0.0 0.0 0.00 0.00 0.00 30 1013.3
20260507044154 72 257 0.0 0.0 0.00 0.00 0.00 30 1013.3
20260507043651 73 288 0.0 1.0 0.00 0.00 0.00 29 1013.5
20260507043148 73 334 0.0 0.0 0.00 0.00 0.00 29 1013.3
20260507042644 73 297 0.0 0.0 0.00 0.00 0.00 29 1013.3
20260507042139 73 297 0.0 0.0 0.00 0.00 0.00 28 1013.1
20260507041637 74 298 0.0 0.0 0.00 0.00 0.00 29 1013.3
20260507041133 74 298 0.0 0.0 0.00 0.00 0.00 28 1013.0
20260507040630 74 325 0.0 0.0 0.00 0.00 0.00 28 1013.2
20260507040127 75 349 0.0 0.0 0.00 0.00 0.00 29 1012.8
20260507035622 75 104 0.0 0.0 0.00 0.00 0.00 27 1012.9
20260507035118 76 104 0.0 0.0 0.00 0.00 0.00 28 1012.9
20260507034615 76 65 0.0 0.0 0.00 0.00 0.00 27 1012.7
20260507034113 76 122 0.0 1.0 0.00 0.00 0.00 27 1012.7
20260507033611 75 349 0.0 0.0 0.00 0.00 0.00 28 1012.6
20260507033108 76 349 0.0 0.0 0.00 0.00 0.00 27 1012.7
20260507032606 76 349 0.0 0.0 0.00 0.00 0.00 27 1012.6
20260507032102 77 349 0.0 0.0 0.00 0.00 0.00 28 1012.5
20260507031558 77 349 0.0 0.0 0.00 0.00 0.00 26 1012.4
20260507031055 77 47 0.0 0.0 0.00 0.00 0.00 26 1012.2
20260507030552 78 59 0.0 0.0 0.00 0.00 0.00 27 1012.4
20260507030050 78 65 0.0 0.0 0.00 0.00 0.00 26 1012.2
20260507025547 78 157 0.0 0.0 0.00 0.00 0.00 25 1012.0
20260507025044 79 132 0.0 0.0 0.00 0.00 0.00 25 1012.0
20260507024541 80 132 0.0 0.0 0.00 0.00 0.00 24 1012.0
20260507024038 80 115 1.0 2.0 0.00 0.00 0.00 24 1012.0
20260507023533 80 104 0.0 1.0 0.00 0.00 0.00 25 1011.9
20260507023032 81 99 1.0 2.0 0.00 0.00 0.00 23 1012.0
20260507022528 81 104 0.0 2.0 0.00 0.00 0.00 23 1012.0
20260507022023 81 104 0.0 2.0 0.00 0.00 0.00 23 1011.8
20260507021520 82 49 0.0 3.0 0.00 0.00 0.00 23 1011.8
20260507021016 82 111 0.0 2.0 0.00 0.00 0.00 22 1011.8
20260507020514 82 94 3.0 3.0 0.00 0.00 0.00 22 1011.5
20260507020010 83 106 0.0 2.0 0.00 0.00 0.00 22 1011.7
20260507015509 84 15 0.0 3.0 0.00 0.00 0.00 22 1011.6
20260507015006 85 107 0.0 3.0 0.00 0.00 0.00 21 1011.7
20260507014502 85 338 0.0 3.0 0.00 0.00 0.00 21 1011.7
20260507013958 84 20 0.0 3.0 0.00 0.00 0.00 21 1011.8
20260507013455 84 100 4.0 4.0 0.00 0.00 0.00 22 1011.7
20260507012952 84 81 2.0 3.0 0.00 0.00 0.00 21 1011.6
20260507012449 84 108 2.0 3.0 0.00 0.00 0.00 21 1011.7
20260507011946 86 114 2.0 3.0 0.00 0.00 0.00 20 1011.7
20260507011443 86 84 3.0 4.0 0.00 0.00 0.00 21 1011.6
20260507010938 89 97 1.0 5.0 0.00 0.00 0.00 20 1011.6
20260507010433 90 90 2.0 3.0 0.00 0.00 0.00 19 1011.7
20260507005930 89 91 2.0 3.0 0.00 0.00 0.00 20 1011.7
20260507005427 89 81 0.0 2.0 0.00 0.00 0.00 20 1011.7
20260507004923 89 98 3.0 4.0 0.00 0.00 0.00 19 1011.9
20260507004420 89 123 2.0 4.0 0.00 0.00 0.00 20 1011.5